UFO 4 (USA 108)

Last updated on Wed Jul 02 2025 00:02:43 GMT+0000 (Coordinated Universal Time)

1 23467U 95003A 25182.34558712 -.00000025 00000+0 00000+0 0 9998 2 23467 9.6901 14.3297 0003147 95.7844 106.2423 1.00270256111438
UTC large
Height (km)
Speed (km/s)
/
Latitude / Longitude
Inclination (degrees)
Orbital Period (minutes)
Azimuth
Elevation
Range (km)
Doppler Factor

Next 0 passes for location: London (51.5072 / 0.1276)

Sorry there are no passes over London.